HNT1988 KDCA-KMYR

Flight info

Callsign HNT1988
Flight time 0h 59m
Altitude 34000
Route AMEEE1 SCOOB PAACK WYLMS
Aircraft B738/M-SDE2E3FGHIRWXY/LB1

Departure

Time 2026-05-06 04:10
Airport Ronald Reagan Washington National Airport (KDCA)

Arrival

Time 2026-05-06 05:09
Airport Myrtle Beach International Airport (KMYR)
Time Latitude Longitude Altitude Speed Heading
2026-05-06 03:35 38.85248 -77.04157 26 ft 0 kts 171°
2026-05-06 03:58 38.85251 -77.04157 23 ft 3 kts 171°
2026-05-06 03:58 38.85275 -77.04167 24 ft 4 kts 142°
2026-05-06 03:59 38.85289 -77.04191 24 ft 4 kts 93°
2026-05-06 03:59 38.85288 -77.04210 27 ft 0 kts 65°
2026-05-06 04:01 38.85288 -77.04209 28 ft 2 kts 65°
2026-05-06 04:01 38.85302 -77.04162 28 ft 7 kts 72°
2026-05-06 04:01 38.85318 -77.04101 27 ft 4 kts 71°
2026-05-06 04:02 38.85322 -77.04083 24 ft 0 kts 72°
2026-05-06 04:03 38.85324 -77.04079 25 ft 2 kts 72°
2026-05-06 04:03 38.85337 -77.04013 26 ft 10 kts 82°
2026-05-06 04:04 38.85368 -77.03941 22 ft 10 kts 16°
2026-05-06 04:04 38.85436 -77.03944 26 ft 10 kts 357°
2026-05-06 04:04 38.85503 -77.03951 29 ft 9 kts 355°
2026-05-06 04:04 38.85567 -77.03957 27 ft 7 kts 355°
2026-05-06 04:05 38.85603 -77.03961 29 ft 0 kts 355°
2026-05-06 04:06 38.85617 -77.03963 30 ft 7 kts 355°
2026-05-06 04:06 38.85684 -77.03970 27 ft 13 kts 355°
2026-05-06 04:06 38.85780 -77.03980 27 ft 14 kts 355°
2026-05-06 04:07 38.85874 -77.03989 26 ft 13 kts 355°
2026-05-06 04:07 38.85963 -77.03997 28 ft 13 kts
2026-05-06 04:07 38.86005 -77.03985 28 ft 0 kts 16°
2026-05-06 04:07 38.86006 -77.03985 25 ft 0 kts 16°
2026-05-06 04:08 38.86016 -77.03981 26 ft 8 kts 16°
2026-05-06 04:08 38.86075 -77.03936 24 ft 12 kts 58°
2026-05-06 04:09 38.86044 -77.03867 25 ft 10 kts 170°
2026-05-06 04:09 38.85848 -77.03845 27 ft 61 kts 175°
2026-05-06 04:09 38.85176 -77.03778 23 ft 130 kts 175°
2026-05-06 04:09 38.84101 -77.03673 181 ft 173 kts 174°
2026-05-06 04:10 38.82838 -77.03489 794 ft 191 kts 173°
2026-05-06 04:10 38.81458 -77.03249 1283 ft 207 kts 172°
2026-05-06 04:10 38.80008 -77.02923 1836 ft 216 kts 170°
2026-05-06 04:10 38.78504 -77.02579 2436 ft 222 kts 172°
2026-05-06 04:11 38.76995 -77.02232 3244 ft 218 kts 174°
2026-05-06 04:11 38.75498 -77.01847 3926 ft 225 kts 167°
2026-05-06 04:11 38.74038 -77.00836 4378 ft 251 kts 152°
2026-05-06 04:11 38.72571 -76.99529 4913 ft 261 kts 152°
2026-05-06 04:12 38.71083 -76.98196 4965 ft 260 kts 152°
2026-05-06 04:12 38.69626 -76.96890 5003 ft 259 kts 153°
2026-05-06 04:12 38.68133 -76.95560 5010 ft 263 kts 153°
2026-05-06 04:12 38.66632 -76.94225 5020 ft 262 kts 152°
2026-05-06 04:13 38.65127 -76.92890 5024 ft 264 kts 152°
2026-05-06 04:13 38.63617 -76.91554 5022 ft 264 kts 152°
2026-05-06 04:13 38.62102 -76.90216 5081 ft 266 kts 153°
2026-05-06 04:13 38.60572 -76.88866 5706 ft 269 kts 153°
2026-05-06 04:14 38.59029 -76.87503 6594 ft 272 kts 152°
2026-05-06 04:14 38.57453 -76.86117 7370 ft 277 kts 152°
2026-05-06 04:14 38.55859 -76.84716 8198 ft 279 kts 152°
2026-05-06 04:14 38.54255 -76.83298 8998 ft 283 kts 152°
2026-05-06 04:15 38.52629 -76.81846 9750 ft 288 kts 151°
2026-05-06 04:15 38.50968 -76.80359 10413 ft 297 kts 150°
2026-05-06 04:15 38.49208 -76.78787 10616 ft 321 kts 150°
2026-05-06 04:15 38.47311 -76.77093 10804 ft 344 kts 150°
2026-05-06 04:16 38.45963 -76.75890 11024 ft 354 kts 149°
2026-05-06 04:16 38.43953 -76.74092 11601 ft 361 kts 149°
2026-05-06 04:16 38.41879 -76.72262 12342 ft 361 kts 153°
2026-05-06 04:16 38.39578 -76.71102 13003 ft 354 kts 174°
2026-05-06 04:17 38.37131 -76.70690 13738 ft 355 kts 177°
2026-05-06 04:17 38.34668 -76.70323 14390 ft 358 kts 177°
2026-05-06 04:17 38.32183 -76.69952 15025 ft 362 kts 177°
2026-05-06 04:17 38.29660 -76.69566 15663 ft 366 kts 176°
2026-05-06 04:18 38.27161 -76.69176 16297 ft 369 kts 176°
2026-05-06 04:18 38.24572 -76.68764 16916 ft 371 kts 176°
2026-05-06 04:18 38.22025 -76.68354 17468 ft 375 kts 176°
2026-05-06 04:18 38.19415 -76.67931 18054 ft 378 kts 176°
2026-05-06 04:19 38.16798 -76.67508 18615 ft 381 kts 176°
2026-05-06 04:19 38.14231 -76.67097 19093 ft 386 kts 176°
2026-05-06 04:19 38.11551 -76.66668 19596 ft 390 kts 176°
2026-05-06 04:19 38.08817 -76.66262 20077 ft 393 kts 179°
2026-05-06 04:20 38.06072 -76.66022 20548 ft 396 kts 181°
2026-05-06 04:20 38.03343 -76.65861 20999 ft 400 kts 181°
2026-05-06 04:20 38.00550 -76.65714 21464 ft 403 kts 181°
2026-05-06 04:20 37.97733 -76.65560 21906 ft 407 kts 181°
2026-05-06 04:21 37.94881 -76.65392 22240 ft 413 kts 181°
2026-05-06 04:21 37.91998 -76.65210 22620 ft 418 kts 181°
2026-05-06 04:21 37.89091 -76.65019 23073 ft 420 kts 181°
2026-05-06 04:21 37.86161 -76.64823 23506 ft 422 kts 181°
2026-05-06 04:22 37.83225 -76.64626 23868 ft 426 kts 181°
2026-05-06 04:22 37.80248 -76.64427 24219 ft 430 kts 181°
2026-05-06 04:22 37.77248 -76.64230 24587 ft 433 kts 181°
2026-05-06 04:23 37.71202 -76.63825 25293 ft 439 kts 181°
2026-05-06 04:23 37.68146 -76.63622 25649 ft 441 kts 181°
2026-05-06 04:23 37.65077 -76.63417 25985 ft 444 kts 181°
2026-05-06 04:23 37.61975 -76.63211 26307 ft 446 kts 181°
2026-05-06 04:24 37.58866 -76.63170 26602 ft 445 kts 191°
2026-05-06 04:24 37.55892 -76.64097 26891 ft 440 kts 202°
2026-05-06 04:24 37.52981 -76.65287 27226 ft 441 kts 202°
2026-05-06 04:24 37.50044 -76.66481 27482 ft 445 kts 202°
2026-05-06 04:25 37.47079 -76.67669 27726 ft 448 kts 201°
2026-05-06 04:25 37.44091 -76.68846 27996 ft 451 kts 201°
2026-05-06 04:25 37.41086 -76.70015 28288 ft 453 kts 201°
2026-05-06 04:25 37.38151 -76.71147 28544 ft 455 kts 201°
2026-05-06 04:26 37.35093 -76.72322 28803 ft 457 kts 201°
2026-05-06 04:26 37.32094 -76.73470 29105 ft 458 kts 201°
2026-05-06 04:26 37.29046 -76.74636 29504 ft 456 kts 201°
2026-05-06 04:26 37.26049 -76.75780 29877 ft 455 kts 201°
2026-05-06 04:27 37.22979 -76.76955 30198 ft 456 kts 201°
2026-05-06 04:27 37.19983 -76.78100 30473 ft 457 kts 201°
2026-05-06 04:27 37.16913 -76.79272 30745 ft 458 kts 201°
2026-05-06 04:27 37.13910 -76.80417 31076 ft 457 kts 202°
2026-05-06 04:28 37.10871 -76.81574 31347 ft 458 kts 202°
2026-05-06 04:28 37.07813 -76.82739 31606 ft 459 kts 202°
2026-05-06 04:28 37.04754 -76.83903 31889 ft 460 kts 202°
2026-05-06 04:28 37.01703 -76.85063 32165 ft 460 kts 202°
2026-05-06 04:29 36.98636 -76.86228 32398 ft 461 kts 203°
2026-05-06 04:29 36.95561 -76.87396 32614 ft 463 kts 203°
2026-05-06 04:29 36.92481 -76.88565 32869 ft 463 kts 203°
2026-05-06 04:29 36.89399 -76.89733 33129 ft 463 kts 203°
2026-05-06 04:30 36.86316 -76.90900 33377 ft 463 kts 204°
2026-05-06 04:30 36.83217 -76.92072 33571 ft 465 kts 204°
2026-05-06 04:30 36.80142 -76.93233 33791 ft 466 kts 204°
2026-05-06 04:30 36.77025 -76.94411 34056 ft 466 kts 204°
2026-05-06 04:31 36.73909 -76.95587 34053 ft 471 kts 204°
2026-05-06 04:31 36.67623 -76.97955 34070 ft 472 kts 204°
2026-05-06 04:32 36.61377 -77.00303 34067 ft 467 kts 204°
2026-05-06 04:32 36.55178 -77.02629 34079 ft 465 kts 205°
2026-05-06 04:33 36.48991 -77.04953 34083 ft 464 kts 205°
2026-05-06 04:33 36.42808 -77.07267 34097 ft 464 kts 205°
2026-05-06 04:34 36.36616 -77.09583 34097 ft 465 kts 205°
2026-05-06 04:34 36.30397 -77.11901 34098 ft 468 kts 205°
2026-05-06 04:35 36.24146 -77.14238 34100 ft 470 kts 205°
2026-05-06 04:35 36.17866 -77.16571 34098 ft 473 kts 205°
2026-05-06 04:36 36.11537 -77.18928 34102 ft 483 kts 205°
2026-05-06 04:36 36.05014 -77.21346 34101 ft 490 kts 205°
2026-05-06 04:37 35.98508 -77.23749 34101 ft 496 kts 205°
2026-05-06 04:37 35.91939 -77.26246 34096 ft 497 kts 209°
2026-05-06 04:38 35.85679 -77.29686 34102 ft 492 kts 214°
2026-05-06 04:38 35.79490 -77.33334 34097 ft 493 kts 214°
2026-05-06 04:39 35.73275 -77.36942 34106 ft 495 kts 214°
2026-05-06 04:39 35.67021 -77.40502 34090 ft 496 kts 213°
2026-05-06 04:40 35.60827 -77.43997 34091 ft 495 kts 213°
2026-05-06 04:40 35.54692 -77.47455 34095 ft 494 kts 213°
2026-05-06 04:41 35.48538 -77.50906 34077 ft 472 kts 214°
2026-05-06 04:41 35.45588 -77.52551 33857 ft 461 kts 214°
2026-05-06 04:41 35.42695 -77.54173 33556 ft 452 kts 214°
2026-05-06 04:41 35.39846 -77.55777 33142 ft 449 kts 214°
2026-05-06 04:42 35.37017 -77.57372 32751 ft 445 kts 213°
2026-05-06 04:42 35.34217 -77.58945 32354 ft 441 kts 213°
2026-05-06 04:42 35.31448 -77.60503 31961 ft 437 kts 212°
2026-05-06 04:42 35.28728 -77.62031 31570 ft 433 kts 212°
2026-05-06 04:43 35.25965 -77.63580 31178 ft 429 kts 212°
2026-05-06 04:43 35.23269 -77.65089 30786 ft 425 kts 211°
2026-05-06 04:43 35.20591 -77.66587 30401 ft 421 kts 211°
2026-05-06 04:43 35.17937 -77.68071 30029 ft 417 kts 211°
2026-05-06 04:44 35.15313 -77.69536 29633 ft 414 kts 210°
2026-05-06 04:44 35.12724 -77.70981 29240 ft 410 kts 210°
2026-05-06 04:44 35.10147 -77.72417 28849 ft 406 kts 210°
2026-05-06 04:44 35.07586 -77.73844 28459 ft 402 kts 210°
2026-05-06 04:45 35.05053 -77.75253 28071 ft 399 kts 210°
2026-05-06 04:45 35.02538 -77.76653 27683 ft 395 kts 210°
2026-05-06 04:45 35.00046 -77.78038 27298 ft 392 kts 210°
2026-05-06 04:45 34.97578 -77.79409 26919 ft 389 kts 210°
2026-05-06 04:46 34.95128 -77.80769 26542 ft 385 kts 211°
2026-05-06 04:46 34.92722 -77.82104 26184 ft 382 kts 211°
2026-05-06 04:46 34.90315 -77.83439 25810 ft 379 kts 210°
2026-05-06 04:46 34.87958 -77.84745 25438 ft 376 kts 211°
2026-05-06 04:47 34.85554 -77.86077 25068 ft 373 kts 211°
2026-05-06 04:47 34.83202 -77.87378 24703 ft 370 kts 211°
2026-05-06 04:47 34.80897 -77.88653 24341 ft 367 kts 211°
2026-05-06 04:47 34.78541 -77.89956 23972 ft 365 kts 211°
2026-05-06 04:48 34.76247 -77.91222 23612 ft 362 kts 211°
2026-05-06 04:48 34.73986 -77.92470 23259 ft 359 kts 211°
2026-05-06 04:48 34.71724 -77.93720 22899 ft 356 kts 210°
2026-05-06 04:48 34.69471 -77.94962 22553 ft 354 kts 210°
2026-05-06 04:49 34.67235 -77.96194 22198 ft 351 kts 210°
2026-05-06 04:49 34.65017 -77.97415 21848 ft 349 kts 210°
2026-05-06 04:49 34.62817 -77.98626 21511 ft 346 kts 210°
2026-05-06 04:49 34.60629 -77.99829 21152 ft 344 kts 210°
2026-05-06 04:50 34.58461 -78.01021 20826 ft 341 kts 210°
2026-05-06 04:50 34.56302 -78.02208 20487 ft 339 kts 210°
2026-05-06 04:50 34.54162 -78.03382 20151 ft 336 kts 209°
2026-05-06 04:50 34.52036 -78.04549 19818 ft 334 kts 209°
2026-05-06 04:51 34.49938 -78.05700 19484 ft 332 kts 209°
2026-05-06 04:51 34.47838 -78.06852 19154 ft 329 kts 208°
2026-05-06 04:51 34.45766 -78.07987 18826 ft 327 kts 208°
2026-05-06 04:51 34.43688 -78.09125 18499 ft 325 kts 208°
2026-05-06 04:52 34.41634 -78.10249 18169 ft 322 kts 208°
2026-05-06 04:52 34.39602 -78.11361 17847 ft 320 kts 208°
2026-05-06 04:52 34.37580 -78.12467 17528 ft 318 kts 207°
2026-05-06 04:52 34.35595 -78.13552 17209 ft 316 kts 207°
2026-05-06 04:53 34.33601 -78.14642 16895 ft 313 kts 207°
2026-05-06 04:53 34.31620 -78.15723 16577 ft 311 kts 207°
2026-05-06 04:53 34.29687 -78.16777 16268 ft 309 kts 207°
2026-05-06 04:53 34.27704 -78.17859 15950 ft 307 kts 207°
2026-05-06 04:54 34.25778 -78.18909 15642 ft 305 kts 207°
2026-05-06 04:54 34.23867 -78.19951 15341 ft 305 kts 207°
2026-05-06 04:54 34.21961 -78.20989 15041 ft 307 kts 206°
2026-05-06 04:54 34.19997 -78.22058 14730 ft 312 kts 206°
2026-05-06 04:55 34.18008 -78.23141 14407 ft 317 kts 206°
2026-05-06 04:55 34.15994 -78.24237 14062 ft 316 kts 206°
2026-05-06 04:55 34.13990 -78.25325 13722 ft 314 kts 206°
2026-05-06 04:55 34.12006 -78.26401 13384 ft 312 kts 206°
2026-05-06 04:56 34.10155 -78.27659 13039 ft 308 kts 219°
2026-05-06 04:56 34.08640 -78.29489 12558 ft 309 kts 231°
2026-05-06 04:56 34.07324 -78.31531 12210 ft 307 kts 233°
2026-05-06 04:56 34.06041 -78.33590 11851 ft 306 kts 233°
2026-05-06 04:57 34.05197 -78.34949 11623 ft 305 kts 233°
2026-05-06 04:57 34.03925 -78.36993 11280 ft 303 kts 232°
2026-05-06 04:57 34.02659 -78.39014 10948 ft 302 kts 232°
2026-05-06 04:57 34.01399 -78.41022 10615 ft 299 kts 232°
2026-05-06 04:58 34.00207 -78.42908 10440 ft 292 kts 231°
2026-05-06 04:58 33.98998 -78.44817 10300 ft 284 kts 231°
2026-05-06 04:58 33.97814 -78.46685 10172 ft 276 kts 231°
2026-05-06 04:58 33.96665 -78.48496 9989 ft 270 kts 231°
2026-05-06 04:59 33.95527 -78.50284 9725 ft 268 kts 231°
2026-05-06 04:59 33.94395 -78.52059 9451 ft 266 kts 231°
2026-05-06 04:59 33.93276 -78.53815 9177 ft 265 kts 231°
2026-05-06 04:59 33.92160 -78.55569 8898 ft 264 kts 230°
2026-05-06 05:00 33.91045 -78.57319 8618 ft 262 kts 230°
2026-05-06 05:00 33.89948 -78.59040 8350 ft 261 kts 230°
2026-05-06 05:00 33.88844 -78.60771 8072 ft 260 kts 230°
2026-05-06 05:00 33.87748 -78.62491 7779 ft 259 kts 230°
2026-05-06 05:01 33.86654 -78.64207 7519 ft 257 kts 230°
2026-05-06 05:01 33.85565 -78.65910 7243 ft 257 kts 230°
2026-05-06 05:01 33.84481 -78.67609 6962 ft 256 kts 230°
2026-05-06 05:01 33.83402 -78.69298 6683 ft 255 kts 230°
2026-05-06 05:02 33.82326 -78.71008 6412 ft 262 kts 235°
2026-05-06 05:02 33.81740 -78.73111 6102 ft 274 kts 264°
2026-05-06 05:02 33.81958 -78.75401 5850 ft 278 kts 281°
2026-05-06 05:02 33.82467 -78.77641 5504 ft 279 kts 283°
2026-05-06 05:03 33.82996 -78.79896 5102 ft 281 kts 282°
2026-05-06 05:03 33.83510 -78.82155 4687 ft 279 kts 282°
2026-05-06 05:03 33.84011 -78.84389 4289 ft 274 kts 282°
2026-05-06 05:03 33.84504 -78.86583 3876 ft 270 kts 281°
2026-05-06 05:04 33.84991 -78.88751 3469 ft 266 kts 281°
2026-05-06 05:04 33.85467 -78.90864 3111 ft 257 kts 281°
2026-05-06 05:04 33.85875 -78.92888 2723 ft 244 kts 272°
2026-05-06 05:04 33.85555 -78.94780 2292 ft 227 kts 234°
2026-05-06 05:05 33.84408 -78.95821 2120 ft 200 kts 191°
2026-05-06 05:05 33.83124 -78.95951 2095 ft 176 kts 182°
2026-05-06 05:05 33.81971 -78.96049 2073 ft 155 kts 174°
2026-05-06 05:05 33.80912 -78.95952 2138 ft 149 kts 172°
2026-05-06 05:06 33.79898 -78.95789 2111 ft 148 kts 168°
2026-05-06 05:06 33.78888 -78.95562 1945 ft 145 kts 169°
2026-05-06 05:06 33.77915 -78.95323 1755 ft 141 kts 169°
2026-05-06 05:06 33.76958 -78.95084 1574 ft 141 kts 169°
2026-05-06 05:07 33.75991 -78.94842 1383 ft 143 kts 168°
2026-05-06 05:07 33.75017 -78.94597 1198 ft 144 kts 168°
2026-05-06 05:07 33.74033 -78.94350 1006 ft 144 kts 168°
2026-05-06 05:07 33.73056 -78.94105 813 ft 143 kts 168°
2026-05-06 05:08 33.72083 -78.93850 614 ft 144 kts 167°
2026-05-06 05:08 33.71083 -78.93593 432 ft 149 kts 169°
2026-05-06 05:08 33.70069 -78.93340 241 ft 148 kts 168°
2026-05-06 05:08 33.69071 -78.93107 47 ft 143 kts 167°
2026-05-06 05:09 33.68257 -78.92903 29 ft 109 kts 168°
2026-05-06 05:09 33.67704 -78.92767 30 ft 52 kts 168°
2026-05-06 05:09 33.67401 -78.92690 30 ft 35 kts 167°
2026-05-06 05:09 33.67311 -78.92577 31 ft 14 kts 83°
2026-05-06 05:10 33.67312 -78.92562 31 ft 0 kts 83°
2026-05-06 05:11 33.67314 -78.92549 31 ft 6 kts 82°
2026-05-06 05:11 33.67324 -78.92489 31 ft 8 kts 78°
2026-05-06 05:11 33.67335 -78.92429 31 ft 7 kts 75°
2026-05-06 05:11 33.67351 -78.92367 31 ft 9 kts 59°
2026-05-06 05:12 33.67415 -78.92345 31 ft 11 kts 353°
2026-05-06 05:12 33.67491 -78.92363 30 ft 11 kts 348°
2026-05-06 05:12 33.67567 -78.92381 29 ft 13 kts 348°
2026-05-06 05:12 33.67662 -78.92405 31 ft 14 kts 347°
2026-05-06 05:13 33.67751 -78.92446 31 ft 14 kts 334°
2026-05-06 05:13 33.67799 -78.92473 31 ft 0 kts 335°
2026-05-06 05:13 33.67831 -78.92490 30 ft 13 kts 337°
2026-05-06 05:14 33.67927 -78.92530 30 ft 15 kts 346°
2026-05-06 05:14 33.68026 -78.92554 31 ft 14 kts 349°
2026-05-06 05:14 33.68106 -78.92539 30 ft 10 kts 57°
2026-05-06 05:14 33.68122 -78.92465 31 ft 8 kts 77°
2026-05-06 05:15 33.68130 -78.92417 31 ft 1 kts 81°
2026-05-06 05:15 33.68127 -78.92403 30 ft 3 kts 110°
2026-05-06 05:15 33.68112 -78.92387 31 ft 3 kts 153°
2026-05-06 05:15 33.68092 -78.92380 31 ft 3 kts 164°
2026-05-06 05:16 33.68084 -78.92378 31 ft 1 kts 164°
2026-05-06 05:16 33.68077 -78.92375 31 ft 0 kts 165°